Погода в Масловой Пристани

Россия / Белгородская область     50°27′18″N   36°44′21″E
темп.,
°C
ветер,
м/с
пор.,
м/с
влажн.,
%
обл.,
%
осадки,
мм/ч
давл.,
гПа
погр.,
м
8 марта, пн
пн800:00−1зюз9159199 0.2 1009957
03:00−1зюз7129099 0.4 1008767
06:00−1зюз71294100 0.6 1007739
09:000зюз8128899 1.1 1007801
12:00+1зюз71079100 0.4 1008959
15:00−1сз4887100 1.6 1008576
18:00−1зсз378099 0.3 1009296
21:00−3зсз368682 0.3 1010222
9 марта, вт
вт900:00−3зсз2587100 0.1 1011268
03:00−3зсз249197 0.2 1012253
06:00−4сз478895 0.6 1013523
09:00−5ссз578392 0.6 1014536
12:00−4сз5672100 0.1 1016916
15:00−4сз6767100 0.1 10181107
18:00−5ссз5772100 0.1 10191021
21:00−7ссз5772100 0.1 1022916
10 марта, ср
ср1000:00−7сз467782 0.0 1023801
03:00−9сз458185 0.0 1025461
06:00−10ссз368433 0.0 1026369
09:00−9ссз347716 0.0 1027428
12:00−6ссз345727 0.0 1028817
15:00−5ссз334823 0.0 1028927
18:00−5ссз335765 0.0 1027785
21:00−6ссв236860 0.0 1028431
11 марта, чт
чт1100:00−7в237781 0.0 1029391
03:00−9в458690 0.2 1030402
06:00−10в458297 0.1 1031410
09:00−10в456490 0.1 1032465
12:00−8в445074 0.0 1032729
15:00−7вюв334082 0.0 10321002
18:00−7в334032 0.0 1031856
21:00−8вюв454818 0.0 1032595
12 марта, пт
пт1200:00−9юв47540 0.0 1033523
03:00−10юв46570 0.0 1032443
06:00−11юв46610 0.0 1033338
09:00−10ююв47530 0.0 1033459
12:00−6ююв57381 0.0 1032749
15:00−4ююв573151 0.0 1031917
18:00−4ююв5833100 0.0 1030915
21:00−5ююв61135100 0.0 1030785